Tracking 28565 objects as of 3-Mar-2024
HD Live streaming from Space Station
objects crossing your sky now

SL-12 R/B(2)

Track SL-12 R/B(2) now!


NORAD ID: 20836
Int'l Code: 1974-060F
Perigee: 35,734.9 km
Apogee: 35,883.3 km
Inclination: 3.5 °
Period: 1,436.9 minutes
Semi major axis: 42180 km
RCS: 3.1622 m2 (large)
Launch date: July 29, 1974
Source: Commonwealth of Independent States (former USSR) (CIS)
Launch site: TYURATAM MISSILE AND SPACE COMPLEX (TTMTR)

Note: This is a ROCKET BODY
Your satellite tracking list
Your tracking list is empty




NASA's NSSDC Master Catalog

Two Line Element Set (TLE):
1 20836U 74060F   24063.61053578 -.00000341  00000-0  00000-0 0  9995
2 20836   3.4975 272.0347 0017590 194.3071  26.5331  1.00216955 37628
Source of the keplerian elements: AFSPC